Regional Weather Roundup
Issued by NWS

Home | Current Version | Previous Version | Graphics & Text | Print | Product List | Glossary On
Versions: 1 2 3 4 5 6 7 8 9 10 11 12 13 14 15 16 17 18 19 20 21 22 23 24 25 26 27 28 29 30 31 32 33 34 35 36 37 38 39 40 41 42 43 44 45 46 47 48 49 50
000
ASUS45 KABQ 021410
RWRNM
NEW MEXICO REGIONAL WEATHER ROUNDUP
NATIONAL WEATHER SERVICE ALBUQUERQUE NM
800 AM MDT WED SEP 02 2015

NOTE: "FAIR" MEANS FEW OR NO CLOUDS BELOW 12,000 FEET AGL WITH NO
       SIGNIFICANT WEATHER OR OBSTRUCTIONS TO VISION.

      THIS PRODUCT IS RELEASED AS TWO VERSIONS.  ONE VERSION NEAR
      THE TOP OF THE HOUR CONTAINING PRELIMINARY DATA FROM ALBUQUERQUE
      AND OTHER STATIONS.  A FINAL VERSION WITH ADDITIONAL DATA IS
      ISSUED ABOUT 10 MINUTES AFTER THE HOUR.

NMZ501-503-504-510>518-021500-
NORTHWEST PLATEAU/NORTHCENTRAL MOUNTAINS

CITY           SKY/WX    TMP DP  RH WIND       PRES   REMARKS
FARMINGTON     MOSUNNY   64  48  56 E7        30.22R
LOS ALAMOS     SUNNY     64  45  50 CALM      30.35R
SANTA FE       MOSUNNY   62  45  53 N8        30.28R
TAOS           MOSUNNY   55  39  54 N3        30.37R
ANGEL FIRE     FAIR      47  44  89 E3        30.43S

$$
NMZ402-403-502-505>509-021500-
WESTCENTRAL MOUNTAINS/SOUTHWEST MOUNTAINS

CITY           SKY/WX    TMP DP  RH WIND       PRES   REMARKS
GALLUP         MOSUNNY   56  49  77 E3        30.32R
GRANTS         MOSUNNY   58  54  87 CALM      30.34R
SILVER CITY      N/A     68  50  52 N7        30.24

$$
NMZ407-409-411-412-021500-
SOUTHERN DESERTS

CITY           SKY/WX    TMP DP  RH WIND       PRES   REMARKS
LORDSBURG      FAIR      70  57  64 W6        30.16R
DEMING         PTSUNNY   70  54  56 SW8       30.15R
LAS CRUCES     MOSUNNY   68  51  54 N3        30.16S
HOLLOMAN AFB   MOSUNNY   74  46  37 VRB5      30.12R
ALAMOGORDO     MOSUNNY   75  46  35 CALM      30.14
T OR C         MOSUNNY   75  48  38 N3        30.18R

$$
NMZ519>523-021500-
CENTRAL VALLEYS/CENTRAL HIGHLANDS

CITY           SKY/WX    TMP DP  RH WIND       PRES   REMARKS
ALBUQUERQUE    PTSUNNY   70  47  43 CALM      30.23R
DOUBLE EAGLE   PTSUNNY   64  48  55 CALM      30.27R
MORIARTY ARPT  FAIR      63  47  57 CALM      30.29R
CLINES CORNERS MOSUNNY   67  48  50 W8        30.32R
BELEN          FAIR      68  57  67 W3        30.22
SOCORRO        FAIR      68  52  55 CALM      30.20R

$$
NMZ524>526-539-540-021500-
SOUTHCENTRAL MOUNTAINS

CITY           SKY/WX    TMP DP  RH WIND       PRES   REMARKS
RUIDOSO        MOSUNNY   64  45  48 MISG      30.35

$$
NMZ527>531-021500-
NORTHEAST HIGHLANDS/NORTHEAST PLAINS

CITY           SKY/WX    TMP DP  RH WIND       PRES   REMARKS
LAS VEGAS      MOSUNNY   58  48  69 CALM      30.30R
RATON          SUNNY     63  50  62 N3        30.24R
CLAYTON        MOSUNNY   69  53  56 W13       30.14R

$$
NMZ532>537-021500-
EASTCENTRAL PLAINS

CITY           SKY/WX    TMP DP  RH WIND       PRES   REMARKS
TUCUMCARI      MOSUNNY   77  50  38 SW14      30.10R
CANNON AFB     MOSUNNY   71  52  50 SW15      30.14S
CLOVIS AIRPORT MOSUNNY   70  52  52 SW7       30.15S

$$
NMZ028-029-538-021500-
SOUTHEAST PLAINS

CITY           SKY/WX    TMP DP  RH WIND       PRES   REMARKS
ROSWELL        PTSUNNY   72  52  49 S5        30.11R
ARTESIA        SUNNY     70  52  52 S7        30.12R
CARLSBAD       NOT AVBL
HOBBS          SUNNY     68  55  64 S7        30.15


$$



USA.gov is the U.S. government's official web portal to all federal, state and local government web resources and services.